7 * 24
多渠道服务支持
STARLINK-34380 是 SpaceX Starlink 卫星互联网项目中的一颗低轨卫星,属于第二代 Starlink 卫星(v1.5 或 v2 架构)。该卫星由猎鹰 9 号火箭发射入轨,旨在为全球提供高速、低延迟的宽带互联网服务。它运行在约 550 公里的轨道高度,配备先进通信设备和离子推进系统,支持更广泛的覆盖和更高的数据传输能力。作为 Starlink 网络的一部分,STARLINK-34380 有助于提升偏远地区的网络接入,并支持多种用户终端设备。
美国
(US)
| 数据来源 | 国际轨道数据 |
| 星历时间: | 2025-11-09T04:00:02+0800 16小时前 查看轨道信息 |
| 半长轴: | 6950.217km |
| 偏心率: | 0.0002927 |
| 轨道倾角: | 70.000° |
| 近地点辐角 | 273.108° |
| 升交点赤经 | 139.335° |
| 平近点角 | 6.798° |
| 近地点: | 570.047km |
| 远地点: | 574.117km |
| 周期: | 96.107分钟 |
| 每日圈数: | 14.983224 |